| time (UTC) | temp F | wind direction | speed MPH | gust MPH | rain 1hr in | rain 24hr in | rain mn in | humidity % | barometer mb |
| 20260507191438 | 59 | 0 | 0.0 | 0.0 | 0.00 | 0.00 | 0.00 | 70 | 1005.5 |
| 20260507190738 | 59 | 0 | 0.0 | 0.0 | 0.00 | 0.00 | 0.00 | 69 | 1005.5 |
| 20260507190039 | 60 | 225 | 0.0 | 1.0 | 0.00 | 0.00 | 0.00 | 68 | 1005.3 |
| 20260507184639 | 61 | 0 | 0.0 | 0.0 | 0.00 | 0.00 | 0.00 | 68 | 1005.2 |
| 20260507183939 | 61 | 213 | 1.0 | 4.0 | 0.00 | 0.00 | 0.00 | 68 | 1005.3 |
| 20260507183239 | 61 | 212 | 1.0 | 4.0 | 0.00 | 0.00 | 0.00 | 67 | 1005.1 |
| 20260507181838 | 62 | 206 | 1.0 | 2.0 | 0.00 | 0.00 | 0.00 | 65 | 1005.1 |
| 20260507181139 | 62 | 192 | 1.0 | 2.0 | 0.00 | 0.00 | 0.00 | 65 | 1005.0 |
| 20260507180439 | 63 | 188 | 2.0 | 4.0 | 0.00 | 0.00 | 0.00 | 65 | 1005.0 |
| 20260507175739 | 63 | 193 | 2.0 | 4.0 | 0.00 | 0.00 | 0.00 | 64 | 1004.9 |
| 20260507175039 | 63 | 240 | 2.0 | 3.0 | 0.00 | 0.00 | 0.00 | 63 | 1005.0 |
| 20260507174339 | 64 | 227 | 2.0 | 4.0 | 0.00 | 0.00 | 0.00 | 59 | 1004.9 |
| 20260507173639 | 64 | 229 | 2.0 | 3.0 | 0.00 | 0.00 | 0.00 | 57 | 1004.8 |
| 20260507172939 | 65 | 212 | 2.0 | 4.0 | 0.00 | 0.00 | 0.00 | 56 | 1004.9 |
| 20260507172239 | 67 | 198 | 2.0 | 4.0 | 0.00 | 0.00 | 0.00 | 55 | 1004.9 |
| 20260507171539 | 66 | 192 | 2.0 | 4.0 | 0.00 | 0.00 | 0.00 | 57 | 1004.8 |
| 20260507170839 | 65 | 188 | 1.0 | 4.0 | 0.00 | 0.00 | 0.00 | 57 | 1004.8 |
| 20260507165439 | 65 | 221 | 4.0 | 8.0 | 0.00 | 0.00 | 0.00 | 55 | 1004.7 |
| 20260507164039 | 67 | 199 | 3.0 | 4.0 | 0.00 | 0.00 | 0.00 | 54 | 1004.5 |
| 20260507163339 | 67 | 188 | 4.0 | 5.0 | 0.00 | 0.00 | 0.00 | 54 | 1004.5 |
| 20260507162639 | 67 | 218 | 3.0 | 5.0 | 0.00 | 0.00 | 0.00 | 54 | 1004.5 |
| 20260507161239 | 67 | 225 | 4.0 | 5.0 | 0.00 | 0.00 | 0.00 | 55 | 1004.4 |
| 20260507155839 | 66 | 227 | 4.0 | 5.0 | 0.00 | 0.00 | 0.00 | 54 | 1004.3 |
| 20260507155139 | 67 | 233 | 4.0 | 5.0 | 0.00 | 0.00 | 0.00 | 55 | 1004.4 |
| 20260507153739 | 67 | 239 | 4.0 | 7.0 | 0.00 | 0.00 | 0.00 | 53 | 1004.6 |
| 20260507152340 | 68 | 179 | 5.0 | 7.0 | 0.00 | 0.00 | 0.00 | 51 | 1004.5 |
| 20260507151639 | 68 | 199 | 5.0 | 8.0 | 0.00 | 0.00 | 0.00 | 51 | 1004.5 |
| 20260507150940 | 69 | 220 | 2.0 | 7.0 | 0.00 | 0.00 | 0.00 | 50 | 1004.5 |
| 20260507145540 | 68 | 183 | 4.0 | 5.0 | 0.00 | 0.00 | 0.00 | 51 | 1004.6 |
| 20260507144839 | 68 | 228 | 5.0 | 9.0 | 0.00 | 0.00 | 0.00 | 50 | 1004.5 |
| 20260507143440 | 69 | 225 | 3.0 | 4.0 | 0.00 | 0.00 | 0.00 | 50 | 1004.6 |
| 20260507141340 | 70 | 212 | 5.0 | 8.0 | 0.00 | 0.00 | 0.00 | 48 | 1004.7 |
| 20260507140640 | 70 | 185 | 5.0 | 8.0 | 0.00 | 0.00 | 0.00 | 48 | 1004.7 |
| 20260507135940 | 69 | 233 | 5.0 | 8.0 | 0.00 | 0.00 | 0.00 | 48 | 1004.6 |
| 20260507135240 | 70 | 207 | 5.0 | 9.0 | 0.00 | 0.00 | 0.00 | 46 | 1004.8 |
| 20260507134540 | 70 | 175 | 5.0 | 9.0 | 0.00 | 0.00 | 0.00 | 48 | 1004.9 |
| 20260507133840 | 71 | 175 | 5.0 | 7.0 | 0.00 | 0.00 | 0.00 | 48 | 1005.0 |
| 20260507133140 | 70 | 212 | 5.0 | 8.0 | 0.00 | 0.00 | 0.00 | 49 | 1005.0 |
| 20260507131740 | 70 | 220 | 5.0 | 7.0 | 0.00 | 0.00 | 0.00 | 49 | 1005.0 |
| 20260507131040 | 71 | 198 | 5.0 | 7.0 | 0.00 | 0.00 | 0.00 | 50 | 1005.1 |
| 20260507130340 | 70 | 183 | 5.0 | 8.0 | 0.00 | 0.00 | 0.00 | 50 | 1005.2 |
| 20260507125640 | 70 | 179 | 5.0 | 8.0 | 0.00 | 0.00 | 0.00 | 49 | 1005.2 |
| 20260507124940 | 70 | 173 | 5.0 | 7.0 | 0.00 | 0.00 | 0.00 | 49 | 1005.4 |
| 20260507124240 | 71 | 207 | 5.0 | 8.0 | 0.00 | 0.00 | 0.00 | 49 | 1005.3 |
| 20260507123540 | 71 | 179 | 5.0 | 8.0 | 0.00 | 0.00 | 0.00 | 50 | 1005.5 |
| 20260507122140 | 70 | 162 | 5.0 | 8.0 | 0.00 | 0.00 | 0.00 | 52 | 1005.4 |
| 20260507121440 | 69 | 182 | 5.0 | 8.0 | 0.00 | 0.00 | 0.00 | 52 | 1005.4 |
| 20260507120740 | 69 | 204 | 4.0 | 5.0 | 0.00 | 0.00 | 0.00 | 53 | 1005.5 |
| 20260507120040 | 69 | 185 | 4.0 | 6.0 | 0.00 | 0.00 | 0.00 | 52 | 1005.6 |
| 20260507115340 | 68 | 226 | 4.0 | 6.0 | 0.00 | 0.00 | 0.00 | 53 | 1005.6 |
| 20260507114640 | 68 | 170 | 4.0 | 5.0 | 0.00 | 0.00 | 0.00 | 54 | 1005.5 |
| 20260507113940 | 67 | 185 | 4.0 | 5.0 | 0.00 | 0.00 | 0.00 | 55 | 1005.5 |
| 20260507113240 | 66 | 201 | 3.0 | 5.0 | 0.00 | 0.00 | 0.00 | 53 | 1005.4 |
| 20260507111840 | 68 | 259 | 3.0 | 5.0 | 0.00 | 0.00 | 0.00 | 51 | 1005.5 |
| 20260507111141 | 68 | 265 | 3.0 | 4.0 | 0.00 | 0.00 | 0.00 | 52 | 1005.6 |
| 20260507110440 | 68 | 270 | 2.0 | 4.0 | 0.00 | 0.00 | 0.00 | 51 | 1005.6 |
| 20260507105740 | 68 | 233 | 4.0 | 6.0 | 0.00 | 0.00 | 0.00 | 51 | 1005.8 |
| 20260507105040 | 68 | 226 | 5.0 | 6.0 | 0.00 | 0.00 | 0.00 | 52 | 1005.8 |
| 20260507104340 | 69 | 197 | 4.0 | 5.0 | 0.00 | 0.00 | 0.00 | 51 | 1005.7 |
| 20260507103640 | 69 | 203 | 5.0 | 7.0 | 0.00 | 0.00 | 0.00 | 51 | 1005.6 |
| 20260507102941 | 68 | 232 | 4.0 | 7.0 | 0.00 | 0.00 | 0.00 | 51 | 1005.7 |
| 20260507102240 | 69 | 185 | 4.0 | 5.0 | 0.00 | 0.00 | 0.00 | 52 | 1005.8 |
| 20260507101540 | 68 | 162 | 5.0 | 6.0 | 0.00 | 0.00 | 0.00 | 54 | 1005.8 |
| 20260507100841 | 68 | 138 | 5.0 | 6.0 | 0.00 | 0.00 | 0.00 | 55 | 1005.8 |
| 20260507100141 | 67 | 172 | 4.0 | 5.0 | 0.00 | 0.00 | 0.00 | 55 | 1005.8 |
| 20260507095441 | 66 | 225 | 4.0 | 6.0 | 0.00 | 0.00 | 0.00 | 57 | 1005.7 |
| 20260507094041 | 64 | 186 | 4.0 | 8.0 | 0.00 | 0.00 | 0.00 | 60 | 1005.9 |
| 20260507093341 | 65 | 210 | 3.0 | 6.0 | 0.00 | 0.00 | 0.00 | 60 | 1005.7 |
| 20260507092641 | 65 | 200 | 4.0 | 5.0 | 0.00 | 0.00 | 0.00 | 58 | 1005.7 |
| 20260507091941 | 66 | 185 | 4.0 | 5.0 | 0.00 | 0.00 | 0.00 | 58 | 1005.8 |
| 20260507091241 | 66 | 213 | 5.0 | 8.0 | 0.00 | 0.00 | 0.00 | 60 | 1005.7 |
| 20260507090541 | 65 | 215 | 5.0 | 8.0 | 0.00 | 0.00 | 0.00 | 60 | 1005.6 |
| 20260507085841 | 65 | 188 | 4.0 | 5.0 | 0.00 | 0.00 | 0.00 | 61 | 1005.6 |
| 20260507085141 | 65 | 191 | 4.0 | 6.0 | 0.00 | 0.00 | 0.00 | 62 | 1005.5 |
| 20260507084441 | 64 | 200 | 4.0 | 5.0 | 0.00 | 0.00 | 0.00 | 64 | 1005.5 |
| 20260507083741 | 63 | 220 | 3.0 | 5.0 | 0.00 | 0.00 | 0.00 | 70 | 1005.3 |
| 20260507082341 | 62 | 221 | 1.0 | 2.0 | 0.00 | 0.00 | 0.00 | 72 | 1005.4 |
| 20260507081641 | 61 | 205 | 2.0 | 3.0 | 0.00 | 0.00 | 0.00 | 71 | 1005.5 |
| 20260507080941 | 61 | 243 | 2.0 | 3.0 | 0.00 | 0.00 | 0.00 | 72 | 1005.5 |
| 20260507074842 | 62 | 204 | 2.0 | 3.0 | 0.00 | 0.00 | 0.00 | 73 | 1005.4 |
| 20260507074141 | 61 | 201 | 1.0 | 3.0 | 0.00 | 0.00 | 0.00 | 74 | 1005.5 |
| 20260507073441 | 61 | 190 | 0.0 | 1.0 | 0.00 | 0.00 | 0.00 | 75 | 1005.7 |
| 20260507072741 | 61 | 229 | 1.0 | 2.0 | 0.00 | 0.00 | 0.00 | 80 | 1005.7 |
| 20260507072041 | 60 | 209 | 0.0 | 2.0 | 0.00 | 0.00 | 0.00 | 86 | 1005.6 |
| 20260507071341 | 58 | 225 | 0.0 | 1.0 | 0.00 | 0.00 | 0.00 | 88 | 1005.4 |
| 20260507070641 | 57 | 225 | 0.0 | 1.0 | 0.00 | 0.00 | 0.00 | 90 | 1005.5 |
| 20260507065941 | 57 | 0 | 0.0 | 0.0 | 0.00 | 0.00 | 0.00 | 91 | 1005.5 |
| 20260507065241 | 57 | 0 | 0.0 | 0.0 | 0.00 | 0.00 | 0.00 | 91 | 1005.5 |
| 20260507064541 | 57 | 0 | 0.0 | 0.0 | 0.00 | 0.00 | 0.00 | 91 | 1005.3 |
| 20260507063842 | 56 | 0 | 0.0 | 0.0 | 0.00 | 0.00 | 0.00 | 92 | 1005.3 |
| 20260507062441 | 55 | 0 | 0.0 | 0.0 | 0.00 | 0.00 | 0.00 | 91 | 1005.2 |
| 20260507061741 | 55 | 0 | 0.0 | 0.0 | 0.00 | 0.00 | 0.00 | 91 | 1005.1 |
| 20260507061042 | 54 | 0 | 0.0 | 0.0 | 0.00 | 0.00 | 0.00 | 93 | 1005.0 |
| 20260507060341 | 54 | 0 | 0.0 | 0.0 | 0.00 | 0.00 | 0.00 | 93 | 1005.0 |
| 20260507055642 | 54 | 0 | 0.0 | 0.0 | 0.00 | 0.00 | 0.00 | 93 | 1004.9 |
| 20260507054242 | 53 | 0 | 0.0 | 0.0 | 0.00 | 0.00 | 0.00 | 92 | 1004.8 |
| 20260507053542 | 52 | 0 | 0.0 | 0.0 | 0.00 | 0.00 | 0.00 | 92 | 1004.7 |
| 20260507052842 | 52 | 0 | 0.0 | 0.0 | 0.00 | 0.00 | 0.00 | 91 | 1004.8 |
| 20260507052142 | 52 | 0 | 0.0 | 0.0 | 0.00 | 0.00 | 0.00 | 91 | 1004.6 |
| 20260507051442 | 52 | 270 | 0.0 | 1.0 | 0.00 | 0.00 | 0.00 | 91 | 1004.6 |
| 20260507050042 | 52 | 0 | 0.0 | 0.0 | 0.00 | 0.00 | 0.00 | 91 | 1004.5 |
| 20260507045342 | 52 | 0 | 0.0 | 0.0 | 0.00 | 0.00 | 0.00 | 90 | 1004.3 |
| 20260507043942 | 52 | 0 | 0.0 | 0.0 | 0.00 | 0.00 | 0.00 | 90 | 1004.4 |
| 20260507043242 | 52 | 0 | 0.0 | 0.0 | 0.00 | 0.00 | 0.00 | 90 | 1004.5 |
| 20260507042542 | 52 | 0 | 0.0 | 0.0 | 0.00 | 0.00 | 0.00 | 90 | 1004.5 |
| 20260507041842 | 52 | 0 | 0.0 | 0.0 | 0.00 | 0.00 | 0.00 | 90 | 1004.5 |
| 20260507041142 | 52 | 0 | 0.0 | 0.0 | 0.00 | 0.00 | 0.00 | 90 | 1004.5 |
| 20260507040442 | 52 | 304 | 0.0 | 2.0 | 0.00 | 0.00 | 0.00 | 89 | 1004.4 |
| 20260507035742 | 52 | 314 | 0.0 | 2.0 | 0.00 | 0.00 | 0.00 | 89 | 1004.4 |
| 20260507035042 | 52 | 0 | 0.0 | 0.0 | 0.00 | 0.00 | 0.00 | 89 | 1004.5 |
| 20260507033642 | 52 | 0 | 0.0 | 0.0 | 0.00 | 0.00 | 0.00 | 88 | 1004.5 |
| 20260507032943 | 52 | 0 | 0.0 | 0.0 | 0.00 | 0.00 | 0.00 | 88 | 1004.6 |
| 20260507031542 | 52 | 0 | 0.0 | 0.0 | 0.00 | 0.00 | 0.00 | 88 | 1004.7 |
| 20260507030842 | 53 | 0 | 0.0 | 0.0 | 0.00 | 0.00 | 0.00 | 88 | 1004.6 |
| 20260507030142 | 53 | 314 | 0.0 | 1.0 | 0.00 | 0.00 | 0.00 | 88 | 1004.6 |
| 20260507025442 | 53 | 0 | 0.0 | 0.0 | 0.00 | 0.00 | 0.00 | 88 | 1004.8 |
| 20260507024743 | 53 | 0 | 0.0 | 0.0 | 0.00 | 0.00 | 0.00 | 88 | 1004.7 |
| 20260507024042 | 53 | 0 | 0.0 | 0.0 | 0.00 | 0.00 | 0.00 | 88 | 1004.7 |
| 20260507023342 | 53 | 0 | 0.0 | 0.0 | 0.00 | 0.00 | 0.00 | 88 | 1004.7 |
| 20260507021243 | 53 | 0 | 0.0 | 0.0 | 0.00 | 0.00 | 0.00 | 86 | 1004.7 |
| 20260507020543 | 53 | 0 | 0.0 | 0.0 | 0.00 | 0.00 | 0.00 | 85 | 1004.7 |
| 20260507015843 | 53 | 0 | 0.0 | 0.0 | 0.00 | 0.00 | 0.00 | 85 | 1004.9 |
| 20260507015142 | 53 | 0 | 0.0 | 0.0 | 0.00 | 0.00 | 0.00 | 85 | 1004.8 |
| 20260507014443 | 53 | 0 | 0.0 | 0.0 | 0.00 | 0.00 | 0.00 | 85 | 1004.8 |
| 20260507013743 | 53 | 0 | 0.0 | 0.0 | 0.00 | 0.00 | 0.00 | 85 | 1004.9 |
| 20260507013043 | 53 | 0 | 0.0 | 0.0 | 0.00 | 0.00 | 0.00 | 85 | 1005.1 |
| 20260507012343 | 53 | 0 | 0.0 | 0.0 | 0.00 | 0.00 | 0.00 | 85 | 1004.9 |
| 20260507011643 | 53 | 0 | 0.0 | 0.0 | 0.00 | 0.00 | 0.00 | 85 | 1005.0 |
| 20260507010943 | 53 | 0 | 0.0 | 0.0 | 0.00 | 0.00 | 0.00 | 85 | 1005.0 |
| 20260507010243 | 53 | 0 | 0.0 | 0.0 | 0.00 | 0.00 | 0.00 | 84 | 1005.0 |
| 20260507005543 | 53 | 0 | 0.0 | 0.0 | 0.00 | 0.00 | 0.00 | 84 | 1005.0 |
| 20260507004843 | 53 | 0 | 0.0 | 0.0 | 0.00 | 0.00 | 0.00 | 84 | 1005.1 |
| 20260507004143 | 53 | 0 | 0.0 | 0.0 | 0.00 | 0.00 | 0.00 | 83 | 1005.1 |
| 20260507003443 | 53 | 0 | 0.0 | 0.0 | 0.00 | 0.00 | 0.00 | 83 | 1005.1 |
| 20260507002743 | 53 | 0 | 0.0 | 0.0 | 0.00 | 0.00 | 0.00 | 83 | 1005.2 |
| 20260507002043 | 53 | 0 | 0.0 | 0.0 | 0.00 | 0.00 | 0.00 | 83 | 1005.3 |
| 20260507001343 | 53 | 0 | 0.0 | 0.0 | 0.00 | 0.00 | 0.00 | 82 | 1005.4 |
| 20260507000643 | 53 | 0 | 0.0 | 0.0 | 0.00 | 0.00 | 0.00 | 82 | 1005.5 |
| 20260506235943 | 53 | 0 | 0.0 | 0.0 | 0.00 | 0.00 | 0.00 | 82 | 1005.5 |
| 20260506235243 | 53 | 0 | 0.0 | 0.0 | 0.00 | 0.00 | 0.00 | 82 | 1005.5 |
| 20260506234543 | 53 | 0 | 0.0 | 0.0 | 0.00 | 0.00 | 0.00 | 82 | 1005.5 |
| 20260506233844 | 53 | 0 | 0.0 | 0.0 | 0.00 | 0.00 | 0.00 | 82 | 1005.5 |
| 20260506233143 | 53 | 314 | 0.0 | 2.0 | 0.00 | 0.00 | 0.00 | 81 | 1005.5 |
| 20260506232443 | 53 | 296 | 0.0 | 2.0 | 0.00 | 0.00 | 0.00 | 81 | 1005.4 |
| 20260506231743 | 53 | 306 | 0.0 | 2.0 | 0.00 | 0.00 | 0.00 | 81 | 1005.4 |
| 20260506231044 | 53 | 0 | 0.0 | 0.0 | 0.00 | 0.00 | 0.00 | 80 | 1005.5 |
| 20260506230343 | 53 | 0 | 0.0 | 0.0 | 0.00 | 0.00 | 0.00 | 80 | 1005.5 |
| 20260506225643 | 54 | 0 | 0.0 | 0.0 | 0.00 | 0.00 | 0.00 | 81 | 1005.3 |
| 20260506223546 | 54 | 0 | 0.0 | 0.0 | 0.00 | 0.00 | 0.00 | 80 | 1005.3 |
| 20260506222843 | 54 | 304 | 0.0 | 2.0 | 0.00 | 0.00 | 0.00 | 79 | 1005.5 |
| 20260506222143 | 53 | 314 | 0.0 | 1.0 | 0.00 | 0.00 | 0.00 | 78 | 1005.6 |
| 20260506220744 | 54 | 0 | 0.0 | 0.0 | 0.00 | 0.00 | 0.00 | 78 | 1005.6 |
| 20260506220043 | 54 | 0 | 0.0 | 0.0 | 0.00 | 0.00 | 0.00 | 77 | 1005.6 |
| 20260506215343 | 54 | 0 | 0.0 | 0.0 | 0.00 | 0.00 | 0.00 | 77 | 1005.6 |
| 20260506214644 | 54 | 0 | 0.0 | 0.0 | 0.00 | 0.00 | 0.00 | 77 | 1005.6 |
| 20260506213944 | 54 | 0 | 0.0 | 0.0 | 0.00 | 0.00 | 0.00 | 76 | 1005.6 |
| 20260506212544 | 54 | 0 | 0.0 | 0.0 | 0.00 | 0.00 | 0.00 | 74 | 1005.7 |
| 20260506211844 | 54 | 0 | 0.0 | 0.0 | 0.00 | 0.00 | 0.00 | 72 | 1005.8 |
| 20260506210444 | 55 | 0 | 0.0 | 0.0 | 0.00 | 0.00 | 0.00 | 71 | 1005.6 |
| 20260506205744 | 55 | 0 | 0.0 | 0.0 | 0.00 | 0.00 | 0.00 | 71 | 1005.6 |
| 20260506205044 | 55 | 0 | 0.0 | 0.0 | 0.00 | 0.00 | 0.00 | 70 | 1005.6 |
| 20260506204344 | 55 | 0 | 0.0 | 0.0 | 0.00 | 0.00 | 0.00 | 70 | 1005.5 |
| 20260506203644 | 55 | 0 | 0.0 | 0.0 | 0.00 | 0.00 | 0.00 | 69 | 1005.6 |
| 20260506202944 | 56 | 0 | 0.0 | 0.0 | 0.00 | 0.00 | 0.00 | 68 | 1005.4 |
| 20260506202244 | 56 | 0 | 0.0 | 0.0 | 0.00 | 0.00 | 0.00 | 67 | 1005.3 |
| 20260506201544 | 56 | 0 | 0.0 | 0.0 | 0.00 | 0.00 | 0.00 | 67 | 1005.1 |
| 20260506200844 | 56 | 0 | 0.0 | 0.0 | 0.00 | 0.00 | 0.00 | 66 | 1005.0 |
| 20260506200144 | 56 | 0 | 0.0 | 0.0 | 0.00 | 0.00 | 0.00 | 64 | 1005.1 |
| 20260506195444 | 57 | 0 | 0.0 | 0.0 | 0.00 | 0.00 | 0.00 | 63 | 1005.0 |
| 20260506194744 | 57 | 0 | 0.0 | 0.0 | 0.00 | 0.00 | 0.00 | 62 | 1005.1 |
| 20260506194044 | 57 | 0 | 0.0 | 0.0 | 0.00 | 0.00 | 0.00 | 61 | 1004.9 |
| 20260506193344 | 58 | 0 | 0.0 | 0.0 | 0.00 | 0.00 | 0.00 | 61 | 1004.7 |
| 20260506192644 | 58 | 0 | 0.0 | 0.0 | 0.00 | 0.00 | 0.00 | 60 | 1004.7 |